Location: 22
(39.7117°N, 89.5929°W)
Time: 00:58:23
(UTC-05:00)

A-11 Canister half - Pass Details

Date: 18 June 2023
Orbit: 1524 x 1684 km, 47.3° (Epoch: 29 September)

Event Time Altitude Azimuth Distance (km) Brightness Sun altitude
Rises 01:18:10 0° 298° (WNW) 4,682 11.8 -26.7°
Reaches altitude 10° 01:21:22 10° 292° (WNW) 3,706 11.2 -26.7°
Maximum altitude 01:29:59 43° 225° (SW) 2,062 9.2 -26.5°
Enters shadow 01:30:42 43° 214° (SW) 2,081 9.2 -26.5°
